Location: B?dimalle
(17.1788°N, 80.5377°E)
Time: 10:02:45
(UTC+00:00)

Tiros 1 despin weight - Pass Details

Date: 19 February 2026
Orbit: 556 x 593 km, 48.2° (Epoch: 10 March)

Event Time Altitude Azimuth Distance (km) Brightness Sun altitude
Rises 17:28:23 0° 302° (WNW) 2,739 - -68.9°
Reaches altitude 10° 17:30:51 10° 290° (WNW) 1,848 - -69.5°
Maximum altitude 17:34:27 27° 231° (SW) 1,087 - -70.3°
Drops below altitude 10° 17:38:06 10° 172° (S) 1,866 - -71.2°
Sets 17:40:37 0° 160° (SSE) 2,770 - -71.7°
